Fairacres, NM

8:05 PM MDT on September 26, 2016 (GMT -0600)
Las Cruces International

Weather History for KLRU - June, 2014

Change the Weather History Date:

Saturday, June 7, 2014

  Actual Average Record
Temperature  
Mean Temperature 80 °F -  
Max Temperature 97 °F 90 °F 100 °F (2006)
Min Temperature 64 °F 61 °F 55 °F (2003)
Cooling Degree Days 16    
Growing Degree Days 30 (Base 50)    
Moisture  
Dew Point 10 °F    
Average Humidity 7    
Maximum Humidity 14    
Minimum Humidity 4    
Precipitation  
Precipitation 0.00 in - - ()
Sea Level Pressure  
Sea Level Pressure 29.89 in    
Wind  
Wind Speed 8 mph (West)    
Max Wind Speed 18 mph    
Max Gust Speed 24 mph    
Visibility 10 miles    
Events      
Averages and records for this station are not official NWS values.
T = Trace of Precipitation, MM = Missing Value Source: NWS Daily Summary

Daily Weather History Graph

Daily Weather History Graph

Search for Another Location

Airport or City:

Trip Planner

Search our weather history database for the weather conditions in past years. The results will help you decide how hot, cold, wet, or windy it might be!

Date:

Astronomy

Jun. 07, 2014 Rise Set
Actual Time 6:00 AM MDT 8:12 PM MDT
Civil Twilight 5:32 AM MDT 8:40 PM MDT
Nautical Twilight 4:57 AM MDT 9:15 PM MDT
Astronomical Twilight 4:20 AM MDT 9:52 PM MDT
Moon 2:50 PM MDT (6/7) 2:04 AM MDT (6/7)
Length of Visible Light 15h 08m
Length of Day
14h 12m
Waxing Gibbous, 68% of the Moon is Illuminated
Jun 7
Waxing Gibbous
Jun 12
Full
Jun 19
Last Quarter
Jun 27
New
Jul 5
First Quarter

Hourly Weather History & Observations

Time (MDT) Temp. Dew Point Humidity Pressure Visibility Wind Dir Wind Speed Gust Speed Precip Events Conditions
12:15 AM 81.7 °F 2.7 °F 5% 29.84 in 10.0 mi WNW 11.5 mph - N/A   Clear
12:35 AM 81.1 °F 3.0 °F 5% 29.84 in 10.0 mi WNW 10.4 mph - N/A   Clear
12:55 AM 79.0 °F 3.2 °F 5% 29.84 in 10.0 mi WNW 9.2 mph - N/A   Clear
1:15 AM 74.8 °F 2.7 °F 6% 29.84 in 10.0 mi WNW 8.1 mph - N/A   Clear
1:35 AM 76.1 °F 3.4 °F 6% 29.84 in 10.0 mi WNW 10.4 mph - N/A   Clear
1:55 AM 74.5 °F 3.7 °F 6% 29.84 in 10.0 mi WNW 8.1 mph - N/A   Clear
2:15 AM 74.5 °F 4.1 °F 6% 29.85 in 10.0 mi NNW 3.5 mph - N/A   Clear
2:35 AM 71.2 °F 3.9 °F 7% 29.86 in 10.0 mi ENE 6.9 mph - N/A   Clear
2:55 AM 74.1 °F 3.7 °F 6% 29.86 in 10.0 mi North 6.9 mph - N/A   Clear
3:15 AM 73.9 °F 4.1 °F 7% 29.86 in 10.0 mi North 5.8 mph - N/A   Clear
3:35 AM 70.7 °F 4.1 °F 7% 29.87 in 10.0 mi North 4.6 mph - N/A   Clear
3:55 AM 68.2 °F 3.9 °F 8% 29.87 in 10.0 mi Calm Calm - N/A   Clear
4:15 AM 66.9 °F 3.6 °F 8% 29.88 in 10.0 mi WSW 6.9 mph - N/A   Clear
4:35 AM 67.8 °F 3.2 °F 8% 29.88 in 10.0 mi Calm Calm - N/A   Clear
4:55 AM 67.5 °F 3.2 °F 8% 29.88 in 10.0 mi NW 3.5 mph - N/A   Clear
5:15 AM 64.6 °F 3.2 °F 9% 29.88 in 10.0 mi WNW 6.9 mph - N/A   Clear
5:55 AM 64.4 °F 3.0 °F 9% 29.90 in 10.0 mi West 8.1 mph - N/A   Clear
6:15 AM 64.8 °F 3.2 °F 9% 29.90 in 10.0 mi West 11.5 mph - N/A   Clear
6:35 AM 64.8 °F 3.2 °F 9% 29.91 in 10.0 mi WNW 8.1 mph - N/A   Clear
6:55 AM 66.4 °F 4.5 °F 9% 29.91 in 10.0 mi West 9.2 mph - N/A   Clear
7:15 AM 69.6 °F 5.9 °F 8% 29.92 in 10.0 mi West 5.8 mph - N/A   Clear
7:35 AM 72.9 °F 7.5 °F 8% 29.93 in 10.0 mi WNW 4.6 mph - N/A   Clear
7:55 AM 76.6 °F 9.0 °F 7% 29.94 in 10.0 mi West 5.8 mph - N/A   Clear
8:15 AM 79.7 °F 8.1 °F 6% 29.95 in 10.0 mi West 5.8 mph - N/A   Clear
8:35 AM 81.1 °F 7.9 °F 6% 29.96 in 10.0 mi West 4.6 mph - N/A   Clear
8:55 AM 81.5 °F 8.2 °F 6% 29.96 in 10.0 mi West 4.6 mph - N/A   Clear
9:15 AM 82.9 °F 8.8 °F 6% 29.96 in 10.0 mi West 8.1 mph - N/A   Clear
9:35 AM 85.1 °F 9.5 °F 6% 29.96 in 10.0 mi West 9.2 mph - N/A   Clear
9:55 AM 86.4 °F 9.0 °F 5% 29.96 in 10.0 mi West 5.8 mph - N/A   Clear
10:15 AM 88.2 °F 8.4 °F 5% 29.96 in 10.0 mi West 4.6 mph - N/A   Clear
10:35 AM 89.1 °F 9.1 °F 5% 29.96 in 10.0 mi SW 5.8 mph - N/A   Clear
11:15 AM 90.0 °F 10.6 °F 5% 29.96 in 10.0 mi SW 4.6 mph - N/A   Clear
11:35 AM 91.8 °F 13.6 °F 6% 29.95 in 10.0 mi WSW 9.2 mph 16.1 mph N/A   Clear
11:55 AM 92.8 °F 13.1 °F 5% 29.95 in 10.0 mi WNW 5.8 mph - N/A   Clear
12:15 PM 92.8 °F 14.0 °F 5% 29.95 in 10.0 mi WSW 8.1 mph 18.4 mph N/A   Clear
12:35 PM 93.9 °F 13.5 °F 5% 29.95 in 10.0 mi SW 3.5 mph 20.7 mph N/A   Clear
12:55 PM 93.7 °F 13.5 °F 5% 29.94 in 10.0 mi West 16.1 mph 24.2 mph N/A   Clear
1:15 PM 93.9 °F 13.3 °F 5% 29.94 in 10.0 mi SW 10.4 mph - N/A   Clear
1:35 PM 94.5 °F 12.0 °F 5% 29.93 in 10.0 mi SW 9.2 mph - N/A   Clear
1:55 PM 95.4 °F 12.4 °F 5% 29.92 in 10.0 mi WSW 10.4 mph 24.2 mph N/A   Clear
2:15 PM 95.0 °F 12.2 °F 5% 29.91 in 10.0 mi NNW 3.5 mph - N/A   Clear
2:35 PM 96.4 °F 13.1 °F 5% 29.90 in 10.0 mi SSW 11.5 mph - N/A   Clear
2:55 PM 97.0 °F 12.2 °F 4% 29.90 in 10.0 mi SW 8.1 mph 19.6 mph N/A   Clear
3:15 PM 96.1 °F 11.1 °F 4% 29.88 in 10.0 mi South 6.9 mph 16.1 mph N/A   Clear
3:35 PM 96.8 °F 12.7 °F 5% 29.88 in 10.0 mi West 11.5 mph 19.6 mph N/A   Clear
3:55 PM 97.0 °F 9.9 °F 4% 29.88 in 10.0 mi SW 8.1 mph 20.7 mph N/A   Clear
4:15 PM 97.5 °F 7.3 °F 4% 29.87 in 10.0 mi WSW 15.0 mph 21.9 mph N/A   Clear
4:35 PM 97.0 °F 8.2 °F 4% 29.86 in 10.0 mi WSW 8.1 mph - N/A   Clear
4:55 PM 97.3 °F 10.9 °F 4% 29.86 in 10.0 mi SW 13.8 mph 21.9 mph N/A   Clear
5:15 PM 97.3 °F 10.0 °F 4% 29.86 in 10.0 mi WSW 18.4 mph 21.9 mph N/A   Clear
5:35 PM 97.7 °F 9.3 °F 4% 29.85 in 10.0 mi SW 15.0 mph 21.9 mph N/A   Clear
5:55 PM 97.2 °F 8.2 °F 4% 29.84 in 10.0 mi WSW 11.5 mph - N/A   Clear
6:15 PM 96.8 °F 8.4 °F 4% 29.84 in 10.0 mi SW 11.5 mph 17.3 mph N/A   Clear
6:35 PM 96.8 °F 8.6 °F 4% 29.84 in 10.0 mi SSW 15.0 mph 20.7 mph N/A   Clear
6:55 PM 96.1 °F 9.0 °F 4% 29.84 in 10.0 mi SSW 8.1 mph - N/A   Clear
7:15 PM 95.2 °F 11.5 °F 5% 29.84 in 10.0 mi SW 9.2 mph - N/A   Clear
7:35 PM 94.3 °F 13.8 °F 5% 29.84 in 10.0 mi SW 10.4 mph - N/A   Clear
7:55 PM 92.8 °F 14.5 °F 6% 29.84 in 10.0 mi SW 5.8 mph - N/A   Clear
8:15 PM 90.0 °F 15.1 °F 6% 29.84 in 10.0 mi SW 5.8 mph - N/A   Clear
8:35 PM 86.0 °F 15.3 °F 7% 29.84 in 10.0 mi WSW 3.5 mph - N/A   Clear
8:55 PM 81.3 °F 12.9 °F 8% 29.84 in 10.0 mi Calm Calm - N/A   Clear
9:15 PM 82.4 °F 14.2 °F 8% 29.86 in 10.0 mi WNW 6.9 mph - N/A   Clear
9:35 PM 82.8 °F 19.0 °F 9% 29.86 in 10.0 mi West 8.1 mph - N/A   Clear
9:55 PM 83.5 °F 22.6 °F 11% 29.87 in 10.0 mi West 9.2 mph - N/A   Clear
10:15 PM 81.9 °F 23.0 °F 11% 29.87 in 10.0 mi West 9.2 mph - N/A   Clear
10:35 PM 80.6 °F 23.5 °F 12% 29.87 in 10.0 mi West 10.4 mph - N/A   Clear
10:55 PM 81.7 °F 24.6 °F 12% 29.88 in 10.0 mi West 11.5 mph - N/A   Clear
11:15 PM 80.6 °F 24.6 °F 13% 29.88 in 10.0 mi West 9.2 mph - N/A   Clear
11:35 PM 78.8 °F 24.4 °F 13% 29.88 in 10.0 mi WNW 8.1 mph - N/A   Clear
11:55 PM 77.7 °F 23.9 °F 14% 29.88 in 10.0 mi West 8.1 mph - N/A   Clear